C/2022 E2 ( ATLAS )

Japanese version
Home page
Updated on November 6, 2022

---------------------------------------------------------------------

* Profile

Discovery Date March 7, 2022
Magnitude 18.7 mag
Discoverer Asteroid Terrestrial-Impact Last Alert System (ATLAS) search program

* Pictures

* Orbital Elements

Epoch 2022 Aug. 9.0 TT = JDT 2459800.5
T 2024 Sept. 13.84346 TT                                Rudenko
q   3.6669219            (2000.0)            P               Q
z  -0.0003709      Peri.   41.66822     -0.03474217     +0.83130233
 +/-0.0000029      Node   125.35325     +0.63784116     -0.40887503
e   1.0013601      Incl.  137.14433     +0.76938394     +0.37650717
>From 206 observations 2022 Feb. 23-Oct. 30, mean residual 0".4.

* Finding Charts

* Magnitudes Graph

        m1 = 4.5 + 5 log d + 10.0 log r

---------------------------------------------------------------------

The orbital elements are published on M.P.E.C. 2022-V95.
The charts are made with StellaNavigator Ver.10 (AstroArts).
The magnitudes graphs are made with Comet for Windows.

---------------------------------------------------------------------

Copyright(C) Seiichi Yoshida (comet@aerith.net). All rights reserved.